Chatham, MA

3:37 AM EDT on October 19, 2017 (GMT -0400)
Chatham Municipal

Weather History for KCQX - November, 2011

Change the Weather History Date:

Friday, November 18, 2011

  Actual Average Record
Temperature  
Mean Temperature 38 °F -  
Max Temperature 45 °F 48 °F 60 °F (1978)
Min Temperature 30 °F 36 °F 27 °F (2001)
Degree Days  
Heating Degree Days 28    
Moisture  
Dew Point 25 °F    
Average Humidity 61    
Maximum Humidity 82    
Minimum Humidity 39    
Precipitation  
Precipitation 0.00 in - - ()
Sea Level Pressure  
Sea Level Pressure 30.26 in    
Wind  
Wind Speed 7 mph (WNW)    
Max Wind Speed 14 mph    
Max Gust Speed 29 mph    
Visibility 10 miles    
Events      
Averages and records for this station are not official NWS values.
T = Trace of Precipitation, MM = Missing Value Source: NWS Daily Summary

Daily Weather History Graph

Daily Weather History Graph

Search for Another Location

Airport or City:

Trip Planner

Search our weather history database for the weather conditions in past years. The results will help you decide how hot, cold, wet, or windy it might be!

Date:

Astronomy

Nov. 18, 2011 Rise Set
Actual Time 6:32 AM EST 4:17 PM EST
Civil Twilight 6:02 AM EST 4:47 PM EST
Nautical Twilight 5:28 AM EST 5:21 PM EST
Astronomical Twilight 4:55 AM EST 5:54 PM EST
Moon 11:45 PM EST (11/18) 12:07 PM EST (11/18)
Length of Visible Light 10h 45m
Length of Day
9h 45m
Waning Gibbous, 49% of the Moon is Illuminated
Nov 18
Waning Gibbous
Nov 25
New
Dec 2
First Quarter
Dec 10
Full
Dec 17
Last Quarter

Hourly Weather History & Observations

Time (EST) Temp. Windchill Dew Point Humidity Pressure Visibility Wind Dir Wind Speed Gust Speed Precip Events Conditions
12:52 AM 37.9 °F 34.4 °F 32.0 °F 79% 29.90 in 10.0 mi Variable 4.6 mph - N/A   Mostly Cloudy
1:52 AM 36.0 °F 30.3 °F 30.9 °F 82% 29.95 in 10.0 mi West 6.9 mph - N/A   Clear
2:52 AM 37.0 °F 29.3 °F 28.0 °F 70% 29.98 in 10.0 mi West 11.5 mph 21.9 mph N/A   Clear
5:52 AM 34.0 °F 28.0 °F 26.1 °F 73% 30.10 in 10.0 mi Variable 6.9 mph - N/A   Clear
7:52 AM 37.0 °F 31.0 °F 27.0 °F 67% 30.18 in 10.0 mi WNW 8.1 mph - N/A   Clear
8:52 AM 39.0 °F 31.4 °F 25.0 °F 57% 30.21 in 10.0 mi WNW 12.7 mph 28.8 mph N/A   Clear
9:52 AM 41.0 °F 33.5 °F 24.1 °F 51% 30.22 in 10.0 mi WNW 13.8 mph 25.3 mph N/A   Clear
11:52 AM 44.1 °F 38.6 °F 21.9 °F 42% 30.24 in 10.0 mi NW 10.4 mph 19.6 mph N/A   Clear
12:52 PM 45.0 °F 39.7 °F 21.0 °F 39% 30.26 in 10.0 mi WNW 10.4 mph 23.0 mph N/A   Clear
1:52 PM 45.0 °F 41.2 °F 21.9 °F 40% 30.27 in 10.0 mi Variable 6.9 mph 19.6 mph N/A   Clear
2:52 PM 44.1 °F 40.1 °F 21.9 °F 42% 30.30 in 10.0 mi WNW 6.9 mph - N/A   Clear
3:52 PM 42.1 °F 40.2 °F 24.1 °F 49% 30.32 in 10.0 mi West 3.5 mph - N/A   Clear
4:52 PM 37.9 °F 35.5 °F 24.1 °F 57% 30.35 in 10.0 mi West 3.5 mph - N/A   Clear
5:52 PM 35.1 °F - 24.1 °F 64% 30.37 in 10.0 mi Calm Calm - N/A   Clear
6:52 PM 37.9 °F 34.4 °F 23.0 °F 55% 30.39 in 10.0 mi West 4.6 mph - N/A   Clear
7:52 PM 34.0 °F - 24.1 °F 67% 30.41 in 10.0 mi Calm Calm - N/A   Clear
8:52 PM 33.1 °F - 24.1 °F 70% 30.44 in 10.0 mi Calm Calm - N/A   Clear
9:52 PM 30.9 °F 27.5 °F 24.1 °F 76% 30.43 in 10.0 mi West 3.5 mph - N/A   Clear
10:52 PM 32.0 °F 27.5 °F 23.0 °F 69% 30.43 in 10.0 mi West 4.6 mph - N/A   Clear
11:52 PM 30.9 °F - 23.0 °F 72% 30.44 in 10.0 mi Calm Calm - N/A   Clear